Weather History for KMDH - March, 2014

Change the Weather History Date:

Saturday, March 1, 2014

  Actual Average Record
Temperature  
Mean Temperature 42 °F -  
Max Temperature 51 °F - - ()
Min Temperature 33 °F - - ()
Degree Days  
Heating Degree Days 22    
Moisture  
Dew Point 30 °F    
Average Humidity 64    
Maximum Humidity 79    
Minimum Humidity 52    
Precipitation  
Precipitation 0.00 in - - ()
Sea Level Pressure  
Sea Level Pressure 30.13 in    
Wind  
Wind Speed 3 mph (NNE)    
Max Wind Speed 14 mph    
Max Gust Speed -    
Visibility 9 miles    
Events      
T = Trace of Precipitation, MM = Missing Value Source: NWS Daily Summary

Daily Weather History Graph

Daily Weather History Graph

Search for Another Location

Airport or City:

Trip Planner

Search our weather history database for the weather conditions in past years. The results will help you decide how hot, cold, wet, or windy it might be!

Date:

Astronomy

Mar. 01, 2014 Rise Set
Actual Time 6:28 AM CST 5:50 PM CST
Civil Twilight 6:02 AM CST 6:17 PM CST
Nautical Twilight 5:31 AM CST 6:47 PM CST
Astronomical Twilight 5:01 AM CST 7:17 PM CST
Moon 6:23 AM CST (3/1) 6:36 PM CST (3/1)
Length of Visible Light 12h 14m
Length of Day
11h 22m
New Moon, 0% of the Moon is Illuminated
Mar 1
New Moon
Mar 8
First Quarter
Mar 16
Full
Mar 23
Last Quarter
Mar 30
New

Hourly Weather History & Observations

Time (CST) Temp. Windchill Dew Point Humidity Pressure Visibility Wind Dir Wind Speed Gust Speed Precip Events Conditions
12:52 AM 39.0 °F 36.8 °F 24.1 °F 55% 30.06 in 10.0 mi SSE 3.5 mph - N/A   Overcast
1:52 AM 39.0 °F - 23.0 °F 53% 30.08 in 10.0 mi Calm Calm - N/A   Overcast
2:52 AM 37.0 °F - 26.1 °F 65% 30.07 in 10.0 mi Calm Calm - N/A   Overcast
3:52 AM 37.0 °F 34.5 °F 27.0 °F 67% 30.06 in 10.0 mi SSE 3.5 mph - N/A   Overcast
4:52 AM 37.9 °F - 26.1 °F 62% 30.10 in 10.0 mi Calm Calm - N/A   Overcast
5:06 AM 39.0 °F 36.8 °F 27.0 °F 62% 30.08 in 10.0 mi SSE 3.5 mph - N/A   Overcast
5:49 AM 39.2 °F 37.0 °F 30.2 °F 70% 30.11 in 10.0 mi South 3.5 mph - N/A   Overcast
5:52 AM 39.9 °F - 30.0 °F 68% 30.12 in 10.0 mi Calm Calm - N/A   Overcast
6:52 AM 39.0 °F - 30.9 °F 73% 30.13 in 10.0 mi Calm Calm - N/A   Overcast
7:52 AM 41.0 °F - 33.1 °F 73% 30.13 in 10.0 mi Calm Calm - N/A   Overcast
8:52 AM 43.0 °F - 32.0 °F 65% 30.18 in 10.0 mi Calm Calm - N/A   Overcast
9:52 AM 46.0 °F 44.8 °F 34.0 °F 63% 30.16 in 10.0 mi Variable 3.5 mph - N/A   Overcast
10:52 AM 46.9 °F - 34.0 °F 61% 30.16 in 10.0 mi Calm Calm - N/A   Overcast
11:52 AM 48.9 °F - 34.0 °F 56% 30.18 in 10.0 mi North 4.6 mph - N/A   Overcast
12:52 PM 48.9 °F - 34.0 °F 56% 30.14 in 10.0 mi Calm Calm - N/A   Overcast
1:52 PM 50.0 °F - 34.0 °F 54% 30.12 in 10.0 mi Calm Calm - N/A   Overcast
2:52 PM 51.1 °F - 34.0 °F 52% 30.11 in 10.0 mi NNE 4.6 mph - N/A   Overcast
3:52 PM 50.0 °F - 34.0 °F 54% 30.13 in 10.0 mi North 4.6 mph - N/A   Overcast
4:52 PM 48.9 °F - 34.0 °F 56% 30.12 in 10.0 mi North 3.5 mph - N/A   Overcast
5:52 PM 43.0 °F 36.0 °F 30.9 °F 62% 30.13 in 8.0 mi NNE 13.8 mph - N/A   Overcast
6:52 PM 39.0 °F 32.8 °F 30.0 °F 70% 30.17 in 7.0 mi North 9.2 mph - N/A   Overcast
7:52 PM 37.0 °F 29.3 °F 28.9 °F 73% 30.19 in 6.0 mi North 11.5 mph - N/A   Haze
8:52 PM 36.0 °F 29.6 °F 28.9 °F 76% 30.18 in 6.0 mi North 8.1 mph - N/A   Haze
9:52 PM 35.1 °F 27.4 °F 28.0 °F 76% 30.18 in 5.0 mi North 10.4 mph - N/A   Haze
10:52 PM 34.0 °F 28.8 °F 28.0 °F 79% 30.17 in 6.0 mi North 5.8 mph - N/A   Haze
11:52 PM 33.1 °F 25.5 °F 26.1 °F 75% 30.18 in 6.0 mi North 9.2 mph - N/A   Haze